Terminal Aerodrome Forecast
Issued by NWS Upton, NY

Home | Current Version | Previous Version | Text Only | Print | Product List | Glossary On
Versions: 1 2 3 4 5 6 7 8 9 10 11 12 13 14 15 16 17 18 19 20 21 22 23 24 25 26 27 28 29 30 31 32 33 34 35 36 37 38
000
FTUS41 KOKX 281726
TAFLGA
TAF
KLGA 281726Z 2818/2918 33013KT 6SM -SN BR OVC040
      TEMPO 2818/2820 5SM -SN BKN015
     FM282000 33015G25KT P6SM OVC040
     FM290400 33015G23KT P6SM BKN050 OVC120
     FM291200 35015G23KT P6SM SCT050 SCT250
     FM291500 34012KT P6SM SCT250=

USA.gov is the U.S. government's official web portal to all federal, state and local government web resources and services.